This is the latest recevied weather packets stored in our database for station/object OK4ZAW-16. If no packets are shown the sender has not sent any weather packets the latest 10 day(s).
| Time | Temp. | Humidity | Pressure | Rain* | Wind** | Luminosity | Snow |
|---|---|---|---|---|---|---|---|
| 1777791546 | 12.78° C | 75% | 1020.9 hPa | - | - | 150 W/m² | - |
| 1777790712 | 12.22° C | 69% | 1020.8 hPa | - | - | 150 W/m² | - |
| 1777790295 | 12.22° C | 70% | 1020.7 hPa | - | - | 150 W/m² | - |
| 1777789878 | 12.22° C | 70% | 1020.7 hPa | - | - | 150 W/m² | - |
| 1777789461 | 12.78° C | 70% | 1020.7 hPa | - | - | 150 W/m² | - |
| 1777789044 | 12.22° C | 69% | 1020.6 hPa | - | - | 150 W/m² | - |
| 1777788627 | 12.22° C | 70% | 1020.6 hPa | - | - | 150 W/m² | - |
| 1777788211 | 12.22° C | 71% | 1020.6 hPa | - | - | 150 W/m² | - |
| 1777787794 | 11.67° C | 72% | 1020.5 hPa | - | - | 150 W/m² | - |
| 1777787377 | 11.67° C | 72% | 1020.5 hPa | - | - | 150 W/m² | - |
| 1777786960 | 11.11° C | 71% | 1020.5 hPa | - | - | 150 W/m² | - |
| 1777786544 | 10.56° C | 74% | 1020.5 hPa | - | - | 150 W/m² | - |
| 1777786127 | 10° C | 78% | 1020.4 hPa | - | - | 150 W/m² | - |
| 1777785711 | 9.44° C | 80% | 1020.4 hPa | - | - | 150 W/m² | - |
| 1777785295 | 9.44° C | 84% | 1020.4 hPa | - | - | 150 W/m² | - |
| 1777784878 | 8.89° C | 85% | 1020.4 hPa | - | - | 150 W/m² | - |
| 1777784462 | 8.89° C | 84% | 1020.4 hPa | - | - | 150 W/m² | - |
| 1777784046 | 8.89° C | 84% | 1020.4 hPa | - | - | 150 W/m² | - |
| 1777783629 | 8.89° C | 83% | 1020.3 hPa | - | - | 150 W/m² | - |
| 1777782797 | 9.44° C | 82% | 1020.4 hPa | - | - | 150 W/m² | - |
| 1777782381 | 9.44° C | 80% | 1020.4 hPa | - | - | 150 W/m² | - |
| 1777781964 | 9.44° C | 82% | 1020.3 hPa | - | - | 150 W/m² | - |
| 1777781548 | 8.89° C | 77% | 1020.4 hPa | - | - | 150 W/m² | - |
| 1777781132 | 8.89° C | 77% | 1020.5 hPa | - | - | 150 W/m² | - |
| 1777780715 | 8.33° C | 79% | 1020.5 hPa | - | - | 150 W/m² | - |
* Rain since midnight (hover to see other rain measurements)
** Current wind speed in m/s (hover to see current wind gust speed)